QPF
0.00 0.00 0.00 0.00 0.00 0.00 0.00 0.00 0.00 0.00 0.00 0.00 0.00 0.00 0.00 0.00 0.00 0.00 0.00 0.00 0.00 0.00 0.00 0.00 0.00 0.00 0.00 0.00 0.00 0.00 0.00 0.00 0.00 0.00 0.00 0.00 0.00 0.00 0.00 0.00 0.00 0.00 0.00 0.00 0.00 0.00 0.00 0.00 0.00
0.00 0.00 0.00 0.00 0.00 0.00 0.00 0.00 0.00 0.00 0.00 0.00 0.00 0.00 0.00 0.00 0.00 0.00 0.00 0.00 0.00 0.00 0.00 0.00 0.00 0.00 0.00 0.00 0.00 0.00 0.00 0.00 0.00 0.00 0.00 0.00 0.00 0.00 0.00 0.00 0.00 0.00 0.00 0.00 0.00 0.00 0.00 0.00 0.00
0.00 0.00 0.00 0.00 0.00 0.00 0.00 0.00 0.00 0.00 0.00 0.00 0.00 0.00 0.00 0.00 0.00 0.00 0.00 0.00 0.00 0.00 0.00 0.00 0.00 0.00 0.00 0.00 0.00 0.00 0.00 0.00 0.00 0.00 0.00 0.00 0.00 0.00 0.00 0.00 0.00 0.00 0.00 0.00 0.00 0.00 0.00 0.00 0.00
0.00 0.00 0.00 0.00 0.00 0.00 0.00 0.00 0.00 0.00 0.00 0.00 0.00 0.00 0.00 0.00 0.00 0.00 0.00 0.00 0.00 0.00 0.00 0.00 0.00 0.00 0.00 0.00 0.00 0.00 0.00 0.00 0.00 0.00 0.00 0.00 0.00 0.00 0.00 0.00 0.00 0.00 0.00 0.00 0.00 0.00 0.00 0.00 0.00
0.00 0.00 0.00 0.00 0.00 0.00 0.00 0.00 0.00 0.00 0.00 0.00 0.00 0.00 0.00 0.00 0.00 0.00 0.00 0.00 0.00 0.00 0.00 0.00 0.00 0.00 0.00 0.00 0.00 0.00 0.00 0.00 0.00 0.00 0.00 0.00 0.00 0.00 0.00 0.00 0.00 0.00 0.00 0.00 0.00 0.00 0.00 0.00 0.00
0.00 0.00 0.00 0.00 0.00 0.00 0.00 0.00 0.00 0.00 0.00 0.00 0.00 0.00 0.00 0.00 0.00 0.00 0.00 0.00 0.00 0.00 0.00 0.00 0.00 0.00 0.00 0.00 0.00 0.00 0.00 0.00 0.00 0.00 0.00 0.00 0.00 0.00 0.00 0.00 0.00 0.00 0.00 0.00 0.00 0.00 0.00 0.00 0.00
0.00 0.00 0.00 0.00 0.00 0.00 0.00 0.00 0.00 0.00 0.00 0.00 0.00 0.00 0.00 0.00 0.00 0.00 0.00 0.00 0.00 0.00 0.00 0.00 0.00 0.00 0.00 0.00 0.00 0.00 0.00 0.00 0.00 0.00 0.00 0.00 0.00 0.00 0.00 0.00 0.00 0.00 0.00 0.00 0.00 0.00 0.00 0.00 0.00
0.00 0.00 0.00 0.00 0.00 0.00 0.00 0.00 0.00 0.00 0.00 0.00 0.00 0.00 0.00 0.00 0.00 0.00 0.00 0.00 0.00 0.00 0.00 0.00 0.00 0.00 0.00 0.00 0.00 0.00 0.00 0.00 0.00 0.00 0.00 0.00 0.00 0.00 0.00 0.00 0.00 0.00 0.00 0.00 0.00 0.00 0.00 0.00 0.00
0.00 0.00 0.00 0.00 0.00 0.00 0.00 0.00 0.00 0.00 0.00 0.00 0.00 0.00 0.00 0.00 0.00 0.00 0.00 0.00 0.00 0.00 0.00 0.00 0.00 0.00 0.00 0.00 0.00 0.00 0.00 0.00 0.00 0.00 0.00 0.00 0.00 0.00 0.00 0.00 0.00 0.00 0.00 0.00 0.00 0.00 0.00 0.00 0.00
0.00 0.00 0.00 0.00 0.00 0.00 0.00 0.00 0.00 0.00 0.00 0.00 0.00 0.00 0.00 0.00 0.00 0.00 0.00 0.00 0.00 0.00 0.00 0.00 0.00 0.00 0.00 0.00 0.00 0.00 0.00 0.00 0.00 0.00 0.00 0.00 0.00 0.00 0.00 0.00 0.00 0.00 0.00 0.00 0.00 0.00 0.00 0.00 0.00
0.00 0.00 0.00 0.00 0.00 0.00 0.00 0.00 0.00 0.00 0.00 0.00 0.00 0.00 0.00 0.00 0.00 0.00 0.00 0.00 0.00 0.00 0.00 0.00 0.00 0.00 0.00 0.00 0.00 0.00 0.00 0.00 0.00 0.00 0.00 0.00 0.00 0.00 0.00 0.00 0.00 0.00 0.00 0.00 0.00 0.00 0.00 0.00 0.00
0.00 0.00 0.00 0.00 0.00 0.00 0.00 0.00 0.00 0.00 0.00 0.00 0.00 0.00 0.00 0.00 0.00 0.00 0.00 0.00 0.00 0.00 0.00 0.00 0.00 0.00 0.00 0.00 0.00 0.00 0.00 0.00 0.00 0.00 0.00 0.00 0.00 0.00 0.00 0.00 0.00 0.00 0.00 0.00 0.00 0.00 0.00 0.00 0.00
0.00 0.00 0.00 0.00 0.00 0.00 0.00 0.00 0.00 0.00 0.00 0.00 0.00 0.00 0.00 0.00 0.00 0.00 0.00 0.00 0.00 0.00 0.00 0.00 0.00 0.00 0.00 0.00 0.00 0.00 0.00 0.00 0.00 0.00 0.00 0.00 0.00 0.00 0.00 0.00 0.00 0.00 0.00 0.00 0.00 0.00 0.00 0.00 0.00
0.00 0.00 0.00 0.00 0.00 0.00 0.00 0.00 0.00 0.00 0.00 0.00 0.00 0.00 0.00 0.00 0.00 0.00 0.00 0.00 0.00 0.00 0.00 0.00 0.00 0.00 0.00 0.00 0.00 0.00 0.00 0.00 0.00 0.00 0.00 0.00 0.00 0.00 0.00 0.00 0.00 0.00 0.00 0.00 0.00 0.00 0.00 0.00 0.00
0.00 0.00 0.00 0.00 0.00 0.00 0.00 0.00 0.00 0.00 0.00 0.00 0.00 0.00 0.00 0.00 0.00 0.00 0.00 0.00 0.00 0.00 0.00 0.00 0.00 0.00 0.00 0.00 0.00 0.00 0.00 0.00 0.00 0.00 0.00 0.00 0.00 0.00 0.00 0.00 0.00 0.00 0.00 0.00 0.00 0.00 0.00 0.00 0.00
0.00 0.00 0.00 0.00 0.00 0.00 0.00 0.00 0.00 0.00 0.00 0.00 0.00 0.00 0.00 0.00 0.00 0.00 0.00 0.00 0.00 0.00 0.00 0.00 0.00 0.00 0.00 0.00 0.00 0.00 0.00 0.00 0.00 0.00 0.00 0.00 0.00 0.00 0.00 0.00 0.00 0.00 0.00 0.00 0.00 0.00 0.00 0.00 0.00
0.00 0.00 0.00 0.00 0.00 0.00 0.00 0.00 0.00 0.00 0.00 0.00 0.00 0.00 0.00 0.00 0.00 0.00 0.00 0.00 0.00 0.00 0.00 0.00 0.00 0.00 0.00 0.00 0.00 0.00 0.00 0.00 0.00 0.00 0.00 0.00 0.00 0.00 0.00 0.00 0.00 0.00 0.00 0.00 0.00 0.00 0.00 0.00 0.00
0.00 0.00 0.00 0.00 0.00 0.00 0.00 0.00 0.00 0.00 0.00 0.00 0.00 0.00 0.00 0.00 0.00 0.00 0.00 0.00 0.00 0.00 0.00 0.00 0.00 0.00 0.00 0.00 0.01 0.02 0.05 0.03 0.02 0.00 0.02 0.01 0.02 0.01 0.00 0.00 0.00 0.00 0.00 0.00 0.00 0.00 0.00 0.00 0.00
0.00 0.00 0.00 0.00 0.00 0.00 0.00 0.00 0.00 0.00 0.00 0.00 0.00 0.00 0.00 0.00 0.00 0.00 0.00 0.00 0.00 0.00 0.00 0.00 0.00 0.00 0.00 0.00 0.00 0.01 0.05 0.04 0.05 0.07 0.07 0.09 0.11 0.08 0.07 0.01 0.00 0.02 0.02 0.02 0.00 0.00 0.00 0.00 0.00
0.00 0.00 0.00 0.00 0.00 0.00 0.00 0.00 0.00 0.00 0.00 0.00 0.00 0.00 0.00 0.00 0.00 0.00 0.00 0.00 0.00 0.00 0.00 0.00 0.00 0.00 0.00 0.00 0.00 0.00 0.02 0.03 0.02 0.05 0.10 0.29 0.22 0.06 0.25 0.25 0.06 0.03 0.09 0.07 0.08 0.07 0.05 0.01 0.00
0.00 0.00 0.00 0.00 0.00 0.00 0.00 0.00 0.00 0.00 0.00 0.00 0.00 0.00 0.00 0.00 0.00 0.00 0.00 0.00 0.00 0.00 0.00 0.00 0.00 0.00 0.00 0.00 0.00 0.00 0.00 0.00 0.00 0.01 0.03 0.15 0.28 0.14 0.24 0.51 0.37 0.17 0.30 0.29 0.17 0.18 0.22 0.21 0.11
0.00 0.00 0.00 0.00 0.00 0.00 0.00 0.00 0.00 0.00 0.00 0.00 0.00 0.00 0.00 0.00 0.00 0.00 0.00 0.00 0.00 0.00 0.00 0.00 0.00 0.00 0.00 0.00 0.00 0.00 0.00 0.00 0.00 0.00 0.00 0.02 0.08 0.12 0.14 0.16 0.27 0.18 0.16 0.17 0.15 0.13 0.15 0.16 0.11
0.00 0.00 0.00 0.00 0.00 0.00 0.00 0.00 0.00 0.00 0.00 0.00 0.00 0.00 0.00 0.00 0.00 0.00 0.00 0.00 0.00 0.00 0.00 0.00 0.00 0.00 0.00 0.00 0.00 0.00 0.00 0.00 0.00 0.00 0.00 0.00 0.00 0.00 0.02 0.04 0.10 0.10 0.04 0.04 0.06 0.16 0.23 0.32 0.35
0.00 0.00 0.00 0.00 0.00 0.00 0.00 0.00 0.00 0.00 0.00 0.00 0.00 0.00 0.00 0.00 0.00 0.00 0.00 0.00 0.00 0.00 0.00 0.00 0.00 0.00 0.00 0.00 0.00 0.00 0.00 0.00 0.00 0.00 0.00 0.00 0.00 0.00 0.01 0.03 0.13 0.18 0.13 0.09 0.16 0.16 0.17 0.24 0.30
0.00 0.00 0.00 0.00 0.00 0.00 0.00 0.00 0.00 0.00 0.00 0.00 0.00 0.00 0.00 0.00 0.00 0.00 0.00 0.00 0.00 0.00 0.00 0.00 0.00 0.00 0.00 0.00 0.00 0.00 0.00 0.00 0.00 0.00 0.00 0.00 0.00 0.00 0.00 0.00 0.03 0.07 0.08 0.15 0.22 0.31 0.41 0.47 0.51
0.00 0.00 0.00 0.00 0.00 0.00 0.00 0.00 0.00 0.00 0.00 0.00 0.00 0.00 0.00 0.00 0.00 0.00 0.00 0.00 0.00 0.00 0.00 0.00 0.00 0.00 0.00 0.00 0.00 0.00 0.00 0.00 0.00 0.00 0.00 0.00 0.00 0.00 0.00 0.00 0.00 0.00 0.04 0.03 0.04 0.08 0.09 0.06 0.05
0.00 0.00 0.00 0.00 0.00 0.00 0.00 0.00 0.00 0.00 0.00 0.00 0.00 0.00 0.00 0.00 0.00 0.00 0.00 0.00 0.00 0.00 0.00 0.00 0.00 0.00 0.00 0.00 0.00 0.00 0.00 0.00 0.00 0.00 0.00 0.00 0.00 0.00 0.00 0.00 0.00 0.00 0.00 0.00 0.00 0.01 0.02 0.03 0.03
0.00 0.00 0.00 0.00 0.00 0.00 0.00 0.00 0.00 0.00 0.00 0.00 0.00 0.00 0.00 0.00 0.00 0.00 0.00 0.00 0.00 0.00 0.00 0.00 0.00 0.00 0.00 0.00 0.00 0.00 0.00 0.00 0.00 0.00 0.00 0.00 0.00 0.00 0.00 0.00 0.00 0.00 0.00 0.01 0.02 0.01 0.01 0.01 0.00
0.00 0.00 0.00 0.00 0.00 0.00 0.00 0.00 0.00 0.00 0.00 0.00 0.00 0.00 0.00 0.00 0.00 0.00 0.00 0.00 0.00 0.00 0.00 0.00 0.00 0.00 0.00 0.00 0.00 0.00 0.00 0.00 0.00 0.00 0.00 0.00 0.00 0.00 0.00 0.00 0.00 0.00 0.00 0.00 0.01 0.01 0.01 0.03 0.01
0.00 0.00 0.00 0.01 0.02 0.01 0.01 0.01 0.00 0.00 0.00 0.00 0.00 0.00 0.00 0.00 0.00 0.00 0.00 0.00 0.00 0.00 0.00 0.00 0.00 0.00 0.00 0.00 0.00 0.00 0.00 0.00 0.00 0.00 0.00 0.00 0.00 0.00 0.00 0.00 0.00 0.00 0.00 0.00 0.00 0.01 0.02 0.03 0.02
MSLP
1010.85 1010.45 1010.25 1010.37 1011.62 1011.93 1011.08 1009.47 1007.78 1006.35 1004.89 1003.34 1002.92 1002.96 1003.87 1004.21 1004.83 1006.52 1006.03 1006.76 1007.53 1008.13 1009.02 1009.84 1009.90 1009.95 1010.25 1010.49 1010.79 1011.20 1011.48 1011.81 1012.16 1012.43 1012.68 1012.97 1013.20 1013.36 1013.51 1013.67 1013.81 1013.92 1014.05 1014.19 1014.31 1014.42 1014.46 1014.57 1014.53
1010.92 1010.51 1010.54 1011.09 1011.80 1012.19 1010.97 1008.72 1007.21 1005.39 1004.16 1003.18 1003.14 1003.18 1003.49 1004.64 1004.96 1006.23 1007.12 1007.70 1007.62 1008.13 1008.82 1009.60 1009.93 1010.08 1010.41 1010.78 1011.00 1011.40 1011.73 1012.00 1012.35 1012.71 1012.95 1013.15 1013.33 1013.53 1013.73 1013.88 1014.03 1014.15 1014.28 1014.32 1014.41 1014.53 1014.58 1014.64 1014.65
1010.89 1010.85 1011.74 1011.61 1011.64 1011.37 1010.01 1007.67 1006.58 1004.78 1003.32 1003.02 1002.82 1003.03 1003.72 1004.93 1005.55 1006.06 1006.56 1007.69 1008.39 1008.61 1008.81 1009.49 1009.93 1010.14 1010.43 1010.77 1011.16 1011.53 1011.90 1012.21 1012.48 1012.80 1013.07 1013.30 1013.46 1013.57 1013.70 1013.88 1014.04 1014.17 1014.28 1014.33 1014.37 1014.42 1014.47 1014.53 1014.60
1011.10 1011.50 1012.02 1011.77 1011.41 1009.95 1008.55 1006.95 1006.04 1004.41 1002.96 1002.84 1002.87 1003.67 1004.05 1004.14 1004.91 1005.69 1006.87 1007.71 1008.53 1008.92 1008.94 1009.46 1009.92 1010.25 1010.51 1010.86 1011.29 1011.67 1011.96 1012.27 1012.57 1012.83 1013.15 1013.34 1013.44 1013.53 1013.64 1013.79 1013.97 1014.05 1014.13 1014.17 1014.26 1014.33 1014.32 1014.35 1014.40
1011.33 1012.20 1012.53 1011.97 1010.74 1009.12 1008.05 1006.73 1005.51 1004.09 1003.30 1003.15 1003.19 1004.07 1004.65 1005.21 1005.41 1006.13 1006.84 1007.60 1008.13 1008.92 1008.98 1009.47 1009.93 1010.34 1010.70 1010.98 1011.36 1011.73 1012.06 1012.29 1012.66 1012.89 1013.03 1013.21 1013.41 1013.51 1013.66 1013.81 1013.90 1014.01 1014.10 1014.13 1014.10 1014.18 1014.24 1014.21 1014.27
1011.78 1012.37 1012.70 1012.02 1010.48 1008.63 1007.54 1006.51 1005.39 1004.33 1003.21 1002.99 1003.95 1004.41 1005.32 1005.61 1005.76 1006.74 1006.87 1007.57 1008.06 1008.44 1008.84 1009.30 1009.83 1010.34 1010.79 1011.12 1011.47 1011.80 1012.02 1012.29 1012.57 1012.84 1013.01 1013.16 1013.26 1013.27 1013.23 1013.27 1013.36 1013.47 1013.60 1013.81 1013.93 1014.03 1014.06 1014.17 1014.22
1011.78 1012.39 1012.20 1011.31 1010.25 1008.70 1006.90 1006.08 1005.48 1004.40 1003.89 1003.55 1003.59 1004.69 1005.48 1005.91 1005.65 1006.12 1006.73 1007.39 1008.06 1008.55 1008.97 1009.34 1009.85 1010.40 1010.80 1011.09 1011.39 1011.75 1012.09 1012.40 1012.51 1012.66 1012.87 1013.01 1013.19 1013.34 1013.42 1013.36 1013.21 1013.24 1013.34 1013.49 1013.71 1013.86 1014.01 1014.10 1014.17
1011.19 1011.82 1011.77 1010.79 1009.91 1008.04 1006.90 1006.15 1005.43 1004.84 1003.83 1003.33 1003.47 1004.51 1005.15 1005.16 1005.83 1006.31 1006.81 1007.39 1007.95 1008.52 1009.03 1009.51 1009.91 1010.31 1010.70 1011.04 1011.26 1011.57 1011.81 1012.06 1012.33 1012.53 1012.68 1012.87 1012.91 1013.05 1013.17 1013.41 1013.57 1013.60 1013.65 1013.64 1013.62 1013.82 1014.01 1013.95 1013.92
1010.68 1011.55 1011.30 1010.10 1009.25 1007.64 1006.72 1006.51 1005.30 1004.10 1003.84 1003.57 1003.69 1004.06 1004.37 1004.51 1005.73 1006.86 1007.67 1008.09 1008.35 1008.72 1008.86 1009.18 1009.61 1009.96 1010.37 1010.77 1011.13 1011.47 1011.75 1011.93 1012.09 1012.37 1012.61 1012.91 1013.17 1013.29 1013.46 1013.57 1013.65 1013.78 1013.73 1013.72 1013.71 1013.73 1013.93 1014.29 1014.27
1010.75 1010.97 1010.22 1009.06 1008.33 1007.75 1006.86 1006.26 1005.79 1005.08 1005.00 1004.52 1004.35 1004.30 1004.29 1004.51 1005.20 1006.72 1007.48 1008.04 1008.26 1008.32 1008.73 1008.98 1009.40 1009.78 1010.20 1010.48 1010.97 1011.46 1011.67 1011.92 1012.22 1012.43 1012.57 1012.78 1013.01 1013.16 1013.23 1013.33 1013.28 1013.40 1013.56 1013.72 1013.86 1013.97 1014.02 1014.04 1014.35
1010.21 1010.04 1009.41 1008.27 1007.78 1007.81 1007.44 1006.64 1005.78 1005.51 1005.26 1005.03 1004.68 1004.86 1005.06 1005.04 1005.50 1006.35 1007.15 1007.43 1007.33 1007.92 1008.47 1008.87 1009.12 1009.34 1009.72 1010.27 1010.76 1011.04 1011.41 1011.57 1011.82 1012.05 1012.14 1012.44 1012.79 1013.16 1013.30 1013.41 1013.34 1013.38 1013.67 1013.80 1013.74 1013.85 1013.93 1013.90 1013.83
1010.01 1009.29 1008.90 1007.96 1007.56 1007.52 1007.15 1006.38 1005.98 1005.60 1005.25 1004.94 1004.68 1004.68 1004.91 1005.24 1005.46 1005.95 1006.64 1006.85 1007.14 1007.74 1008.21 1008.74 1009.01 1009.07 1009.36 1009.10 1009.65 1010.11 1010.80 1010.98 1011.39 1011.74 1012.16 1012.62 1012.58 1012.80 1012.94 1013.39 1013.31 1013.12 1013.07 1013.50 1013.77 1013.65 1013.56 1013.71 1013.85
1009.76 1009.09 1008.33 1007.52 1007.01 1006.93 1006.60 1006.30 1005.65 1005.40 1005.07 1004.72 1004.63 1004.50 1004.79 1005.17 1005.40 1005.80 1006.34 1006.68 1006.82 1007.41 1007.75 1008.20 1008.68 1008.30 1008.77 1009.11 1009.49 1009.99 1010.12 1010.48 1010.65 1011.28 1011.60 1011.79 1012.32 1012.44 1012.85 1012.70 1013.09 1012.94 1013.04 1013.19 1013.48 1013.76 1013.55 1013.55 1013.57
1008.60 1008.45 1008.09 1007.34 1006.82 1006.52 1006.51 1005.98 1005.69 1004.98 1004.77 1004.84 1004.82 1004.80 1004.82 1005.04 1005.27 1005.62 1006.24 1006.66 1006.97 1006.80 1007.21 1007.70 1008.36 1008.40 1008.66 1008.91 1009.29 1009.46 1009.66 1009.86 1010.22 1010.62 1010.75 1010.99 1011.42 1011.68 1012.10 1012.40 1012.68 1012.77 1012.74 1012.76 1012.94 1013.31 1013.46 1013.49 1013.36
1008.39 1008.60 1007.91 1007.24 1006.56 1006.37 1006.07 1005.89 1005.54 1005.08 1004.73 1004.71 1004.78 1004.79 1004.78 1004.84 1005.08 1005.52 1005.47 1006.17 1006.43 1006.54 1006.58 1007.10 1007.48 1007.99 1008.16 1008.94 1009.17 1009.36 1009.08 1009.54 1010.10 1010.15 1010.21 1010.45 1010.63 1010.93 1011.33 1011.68 1012.11 1012.08 1012.35 1012.73 1012.85 1013.02 1012.98 1013.12 1013.01
1008.53 1008.52 1008.09 1007.05 1006.25 1005.84 1005.96 1005.67 1005.36 1004.92 1005.03 1005.19 1004.86 1004.83 1004.80 1004.73 1004.93 1004.95 1005.18 1005.21 1006.04 1006.37 1006.53 1006.76 1007.34 1007.99 1008.32 1008.77 1008.94 1009.15 1009.00 1009.20 1009.30 1009.44 1009.71 1009.93 1010.11 1010.23 1010.95 1011.36 1011.40 1011.72 1012.38 1012.44 1012.65 1012.86 1012.98 1013.15 1013.17
1009.19 1008.97 1008.27 1007.18 1006.21 1006.24 1006.21 1005.95 1005.10 1004.72 1004.98 1005.05 1004.91 1004.77 1004.71 1004.70 1004.85 1004.84 1005.02 1005.01 1005.39 1005.97 1006.61 1006.91 1007.31 1007.76 1008.08 1008.68 1008.74 1009.13 1008.92 1009.02 1009.07 1009.00 1009.10 1009.33 1009.57 1009.98 1010.53 1010.87 1010.95 1011.05 1011.61 1012.04 1012.25 1012.47 1012.61 1012.88 1012.87
1009.59 1009.24 1008.41 1007.49 1006.52 1006.32 1006.18 1006.09 1005.17 1004.57 1004.68 1004.70 1004.91 1004.53 1004.51 1004.54 1004.59 1004.36 1004.77 1004.97 1005.12 1005.59 1006.23 1006.74 1007.27 1007.59 1007.59 1007.95 1008.37 1008.53 1008.67 1008.83 1008.79 1008.89 1008.97 1009.10 1009.46 1009.50 1010.11 1010.32 1010.43 1010.83 1011.28 1011.26 1011.64 1012.15 1012.37 1012.36 1012.23
1009.18 1009.01 1008.71 1007.49 1006.52 1006.57 1006.29 1006.11 1005.28 1004.42 1004.51 1004.77 1004.89 1004.55 1004.43 1004.33 1003.92 1003.96 1004.35 1005.00 1005.61 1005.82 1006.28 1006.69 1007.17 1007.48 1007.80 1007.98 1008.16 1008.41 1008.47 1008.44 1008.46 1008.46 1008.38 1008.68 1009.12 1009.31 1010.01 1009.98 1010.21 1010.49 1010.64 1010.82 1011.14 1011.37 1011.73 1011.60 1011.67
1008.87 1008.80 1008.41 1007.62 1006.56 1006.54 1006.12 1005.88 1005.35 1004.94 1004.61 1004.47 1004.53 1004.65 1004.60 1004.51 1004.25 1004.19 1004.33 1005.17 1005.62 1005.70 1006.13 1006.50 1006.92 1007.26 1007.33 1007.31 1007.61 1007.92 1008.30 1008.38 1008.58 1008.80 1008.90 1008.91 1008.56 1008.57 1009.36 1009.69 1009.72 1009.88 1010.16 1010.62 1011.23 1011.36 1011.44 1011.34 1011.27
1008.09 1008.10 1007.86 1007.43 1006.59 1006.46 1006.29 1006.17 1005.83 1005.10 1004.66 1004.36 1004.23 1004.20 1004.11 1004.14 1004.20 1004.07 1004.37 1005.28 1005.78 1006.08 1006.40 1006.80 1006.99 1007.19 1007.24 1007.10 1007.42 1007.74 1008.41 1008.63 1008.68 1008.65 1008.78 1009.02 1008.95 1008.43 1008.79 1008.93 1009.04 1009.12 1009.39 1009.49 1010.48 1010.70 1011.22 1011.29 1010.86
1007.38 1006.69 1006.73 1006.98 1007.24 1007.44 1007.06 1007.05 1006.49 1005.67 1005.26 1004.83 1004.38 1004.27 1004.09 1003.94 1003.56 1003.50 1004.44 1005.06 1005.63 1006.20 1006.10 1006.20 1006.43 1006.60 1006.84 1007.12 1007.56 1007.96 1008.54 1008.96 1008.85 1008.80 1008.54 1008.55 1008.74 1008.59 1008.35 1008.21 1008.59 1008.88 1009.12 1009.67 1009.01 1009.57 1009.72 1009.95 1010.39
1006.31 1006.06 1006.54 1007.09 1007.80 1008.26 1008.17 1008.29 1006.76 1006.12 1005.79 1005.05 1004.52 1004.25 1003.63 1002.87 1003.05 1003.41 1004.03 1004.85 1005.60 1006.18 1006.18 1006.30 1006.56 1007.01 1007.13 1007.23 1007.51 1008.06 1008.54 1008.80 1008.67 1008.61 1008.56 1008.64 1008.76 1008.75 1008.50 1008.26 1008.34 1008.50 1008.76 1008.96 1008.29 1008.42 1009.25 1009.31 1009.68
1006.25 1006.66 1007.27 1007.95 1008.94 1009.50 1009.13 1008.66 1007.41 1006.87 1006.04 1005.33 1004.53 1004.32 1003.83 1003.28 1003.53 1004.17 1004.58 1005.30 1006.09 1006.39 1006.54 1006.68 1006.99 1007.52 1007.51 1007.59 1007.81 1008.15 1008.51 1008.65 1008.66 1008.59 1008.56 1008.53 1008.57 1008.65 1008.41 1008.14 1008.08 1007.86 1008.09 1007.96 1008.11 1008.00 1008.23 1008.40 1009.03
1006.96 1007.86 1009.26 1010.07 1010.53 1010.48 1009.72 1009.14 1007.75 1006.61 1006.24 1005.85 1005.37 1004.81 1004.56 1004.95 1005.44 1005.74 1005.63 1005.96 1006.38 1006.68 1006.81 1006.85 1007.10 1007.64 1007.61 1007.62 1007.76 1007.98 1008.16 1008.23 1008.45 1008.77 1008.84 1008.69 1008.61 1008.80 1008.62 1008.20 1007.91 1007.80 1007.59 1007.35 1007.21 1007.41 1007.60 1007.99 1006.07
1008.04 1008.95 1010.61 1011.55 1012.00 1011.52 1010.48 1009.46 1007.76 1007.20 1006.66 1006.12 1006.04 1006.36 1005.10 1005.87 1006.34 1006.59 1006.43 1006.25 1006.50 1006.83 1006.97 1006.98 1007.16 1007.45 1007.51 1007.57 1007.59 1007.56 1007.72 1007.99 1008.19 1008.41 1008.68 1008.62 1008.53 1008.44 1008.46 1008.51 1008.23 1007.81 1007.47 1007.09 1006.77 1007.15 1007.32 1006.90 1006.09
1008.61 1009.73 1010.91 1012.15 1012.91 1012.58 1011.37 1009.66 1008.15 1007.39 1007.30 1006.96 1007.13 1007.12 1007.03 1007.01 1007.00 1007.02 1006.86 1006.72 1006.79 1006.96 1007.14 1007.14 1007.27 1007.47 1007.51 1007.30 1007.19 1007.13 1007.12 1007.43 1007.80 1007.81 1007.94 1008.12 1008.05 1007.94 1008.01 1008.00 1007.91 1007.68 1007.32 1006.80 1006.38 1006.39 1006.21 1006.13 1006.27
1009.11 1010.00 1011.39 1012.85 1013.57 1013.20 1011.89 1010.43 1008.97 1008.55 1008.57 1008.09 1007.97 1007.89 1007.80 1007.59 1007.56 1007.31 1007.28 1006.97 1006.95 1006.95 1006.93 1006.97 1007.07 1007.15 1006.99 1006.89 1006.76 1006.77 1006.76 1006.86 1007.07 1007.39 1007.64 1007.76 1007.80 1007.64 1007.68 1007.64 1007.40 1007.08 1006.72 1006.38 1005.94 1005.61 1005.30 1005.54 1005.56
1010.53 1010.96 1011.78 1012.62 1013.76 1013.94 1012.92 1010.79 1009.16 1009.19 1009.05 1008.95 1008.59 1008.22 1007.94 1007.86 1008.05 1007.72 1007.62 1007.33 1006.99 1006.70 1006.72 1006.69 1006.68 1006.65 1006.66 1006.73 1006.76 1006.77 1006.73 1006.64 1006.60 1006.78 1006.82 1006.86 1006.98 1007.10 1007.21 1007.19 1007.10 1006.84 1006.44 1006.05 1005.79 1005.55 1005.08 1005.00 1005.14
1011.30 1012.00 1012.74 1013.78 1014.59 1014.25 1013.34 1010.81 1009.89 1009.67 1009.30 1008.94 1008.61 1008.31 1007.86 1007.54 1007.54 1007.74 1007.73 1007.48 1006.97 1006.98 1007.01 1007.12 1006.79 1006.73 1006.49 1006.46 1006.51 1006.45 1006.30 1006.28 1006.29 1006.14 1006.01 1006.05 1006.25 1006.26 1006.38 1006.44 1006.48 1006.37 1006.05 1005.72 1005.39 1005.03 1004.76 1004.68 1004.63
Thickness
5785 5790 5798 5793 5758 5750 5749 5774 5800 5805 5817 5848 5852 5846 5837 5845 5840 5814 5863 5864 5858 5854 5846 5838 5837 5837 5835 5833 5832 5828 5826 5823 5819 5816 5814 5811 5808 5806 5804 5802 5799 5797 5795 5792 5790 5787 5786 5783 5782
5780 5787 5786 5773 5742 5727 5740 5780 5793 5810 5831 5848 5844 5841 5840 5829 5853 5845 5847 5856 5859 5853 5846 5840 5837 5836 5833 5830 5829 5826 5823 5821 5817 5814 5811 5809 5807 5804 5802 5799 5797 5795 5793 5791 5789 5786 5784 5781 5779
5775 5780 5756 5750 5735 5732 5744 5791 5800 5820 5841 5842 5837 5846 5841 5830 5846 5849 5858 5853 5849 5847 5844 5839 5836 5834 5832 5829 5825 5822 5820 5818 5815 5812 5809 5807 5805 5803 5801 5798 5796 5793 5791 5790 5788 5786 5785 5782 5779
5764 5759 5752 5740 5741 5762 5778 5791 5803 5820 5839 5842 5836 5819 5841 5859 5854 5855 5854 5850 5842 5841 5840 5837 5834 5831 5829 5826 5822 5819 5817 5814 5812 5810 5807 5804 5803 5802 5800 5798 5795 5793 5791 5789 5787 5785 5784 5783 5781
5755 5741 5724 5731 5747 5768 5783 5796 5804 5816 5825 5832 5830 5811 5815 5839 5852 5852 5851 5847 5842 5837 5837 5834 5830 5827 5824 5821 5818 5815 5813 5811 5807 5806 5804 5803 5801 5800 5798 5796 5794 5791 5789 5788 5787 5785 5783 5783 5781
5731 5731 5713 5717 5743 5771 5782 5794 5802 5809 5823 5832 5814 5810 5810 5834 5840 5840 5850 5843 5842 5838 5835 5832 5826 5822 5818 5815 5813 5811 5809 5807 5805 5803 5802 5801 5800 5799 5800 5799 5798 5796 5793 5790 5788 5786 5784 5782 5780
5724 5711 5714 5730 5740 5751 5781 5799 5792 5801 5807 5811 5823 5795 5809 5820 5838 5843 5844 5841 5836 5834 5831 5827 5822 5817 5814 5811 5809 5806 5804 5802 5802 5801 5799 5798 5796 5795 5794 5794 5795 5794 5793 5791 5788 5786 5783 5781 5779
5733 5721 5721 5732 5737 5751 5784 5788 5798 5796 5802 5827 5830 5793 5793 5819 5828 5837 5840 5837 5834 5827 5824 5820 5816 5813 5810 5807 5805 5804 5802 5800 5798 5797 5796 5795 5795 5794 5792 5790 5787 5786 5786 5785 5784 5781 5778 5779 5778
5739 5705 5708 5731 5743 5762 5780 5772 5794 5813 5806 5814 5817 5811 5819 5830 5821 5816 5819 5824 5825 5821 5820 5818 5814 5810 5808 5805 5802 5799 5797 5796 5796 5793 5791 5789 5787 5786 5784 5783 5782 5780 5780 5779 5778 5778 5775 5770 5770
5714 5703 5722 5751 5758 5756 5764 5771 5781 5785 5781 5793 5804 5818 5823 5821 5817 5801 5800 5804 5812 5817 5815 5814 5811 5809 5805 5803 5800 5797 5796 5794 5790 5788 5787 5784 5782 5781 5780 5779 5779 5777 5776 5774 5772 5770 5769 5769 5766
5719 5710 5732 5750 5760 5758 5755 5764 5780 5774 5773 5785 5791 5799 5808 5811 5809 5802 5792 5796 5807 5811 5812 5807 5806 5806 5804 5800 5795 5794 5790 5790 5788 5785 5784 5781 5778 5774 5773 5772 5772 5772 5768 5767 5767 5766 5765 5766 5767
5709 5729 5735 5750 5756 5753 5751 5767 5765 5773 5778 5791 5798 5806 5804 5800 5803 5800 5800 5795 5797 5798 5801 5803 5800 5799 5799 5801 5798 5793 5789 5786 5783 5781 5777 5774 5774 5772 5770 5767 5767 5769 5768 5763 5760 5762 5762 5761 5758
5707 5720 5735 5749 5752 5750 5754 5752 5762 5767 5784 5793 5798 5802 5801 5796 5798 5796 5792 5791 5794 5791 5791 5789 5793 5799 5795 5793 5792 5788 5787 5782 5781 5776 5775 5774 5770 5769 5763 5764 5761 5763 5762 5761 5758 5754 5756 5756 5755
5718 5718 5723 5737 5741 5744 5742 5749 5757 5773 5781 5783 5786 5785 5789 5789 5792 5793 5787 5784 5788 5789 5786 5785 5781 5785 5788 5788 5785 5783 5780 5779 5778 5775 5774 5771 5769 5768 5764 5761 5758 5755 5756 5756 5754 5750 5749 5749 5749
5712 5704 5715 5726 5734 5731 5740 5732 5744 5769 5776 5770 5772 5777 5781 5785 5786 5783 5787 5783 5786 5787 5786 5784 5782 5780 5781 5779 5779 5778 5781 5774 5771 5770 5770 5767 5767 5763 5761 5759 5753 5752 5749 5745 5744 5743 5745 5744 5745
5700 5699 5690 5717 5735 5740 5732 5713 5742 5760 5756 5754 5761 5766 5771 5777 5778 5782 5783 5785 5780 5780 5780 5780 5777 5770 5769 5769 5770 5770 5772 5771 5770 5768 5766 5767 5765 5761 5754 5751 5751 5746 5739 5738 5740 5738 5736 5734 5732
5673 5670 5686 5706 5728 5723 5717 5709 5739 5749 5747 5746 5752 5758 5764 5768 5772 5774 5776 5780 5780 5777 5772 5772 5770 5766 5764 5760 5762 5760 5764 5765 5764 5763 5764 5763 5760 5755 5748 5745 5745 5743 5740 5736 5735 5731 5729 5726 5727
5663 5669 5681 5685 5707 5711 5700 5702 5729 5739 5740 5739 5744 5749 5753 5761 5765 5772 5770 5774 5774 5773 5768 5763 5759 5757 5759 5758 5756 5754 5754 5756 5758 5760 5761 5759 5750 5747 5740 5739 5739 5734 5731 5733 5728 5723 5721 5722 5723
5673 5667 5668 5690 5706 5700 5693 5697 5712 5729 5731 5729 5732 5741 5745 5752 5765 5768 5768 5762 5762 5762 5760 5756 5750 5748 5747 5749 5749 5747 5745 5746 5748 5750 5752 5748 5743 5740 5733 5733 5730 5727 5726 5724 5720 5718 5715 5718 5721
5667 5661 5662 5678 5698 5691 5695 5696 5711 5719 5722 5725 5728 5732 5736 5741 5748 5754 5756 5750 5749 5749 5748 5744 5742 5740 5744 5748 5746 5745 5743 5742 5741 5738 5734 5730 5735 5735 5726 5722 5723 5723 5722 5716 5707 5705 5704 5704 5708
5664 5658 5665 5670 5691 5694 5693 5680 5694 5708 5720 5725 5728 5733 5738 5738 5739 5744 5745 5737 5735 5734 5733 5731 5733 5736 5737 5740 5736 5732 5727 5727 5727 5728 5725 5721 5719 5725 5723 5720 5718 5714 5713 5713 5706 5702 5693 5690 5698
5655 5683 5682 5680 5672 5651 5686 5641 5679 5695 5698 5712 5722 5725 5726 5729 5737 5742 5732 5728 5726 5725 5729 5731 5733 5734 5734 5732 5726 5718 5712 5710 5714 5714 5716 5715 5712 5710 5714 5716 5711 5707 5702 5699 5709 5703 5697 5696 5690
5661 5682 5677 5677 5663 5658 5661 5639 5662 5690 5690 5701 5711 5717 5725 5737 5733 5730 5727 5723 5718 5716 5717 5719 5720 5719 5720 5721 5718 5710 5705 5702 5703 5704 5704 5702 5700 5697 5697 5699 5700 5695 5697 5698 5706 5703 5693 5689 5685
5675 5671 5660 5652 5639 5619 5648 5644 5650 5669 5679 5688 5706 5709 5715 5726 5722 5717 5714 5711 5706 5705 5704 5704 5703 5700 5701 5703 5704 5701 5697 5695 5693 5693 5691 5690 5687 5684 5686 5687 5686 5691 5690 5695 5693 5693 5689 5688 5680
5650 5633 5612 5609 5610 5608 5645 5637 5637 5679 5680 5684 5689 5692 5697 5700 5695 5693 5695 5694 5691 5691 5691 5693 5691 5686 5687 5688 5686 5684 5683 5684 5683 5679 5675 5675 5675 5670 5668 5672 5673 5672 5676 5683 5687 5684 5685 5679 5670
5637 5627 5597 5594 5591 5609 5632 5616 5644 5668 5670 5678 5680 5670 5686 5682 5681 5680 5683 5684 5681 5679 5678 5679 5679 5677 5677 5676 5675 5672 5670 5668 5668 5665 5662 5662 5661 5660 5657 5654 5656 5659 5661 5667 5675 5672 5671 5675 5681
5630 5614 5618 5598 5591 5584 5602 5628 5645 5657 5653 5657 5660 5658 5654 5663 5665 5663 5668 5670 5669 5668 5668 5669 5668 5666 5664 5665 5665 5665 5666 5661 5657 5654 5651 5649 5648 5648 5647 5645 5644 5645 5648 5651 5654 5655 5661 5664 5664
5624 5628 5598 5578 5570 5574 5589 5606 5617 5632 5627 5637 5637 5638 5641 5644 5652 5656 5655 5657 5656 5658 5658 5659 5659 5656 5655 5655 5658 5657 5656 5656 5653 5645 5639 5633 5630 5632 5632 5632 5633 5635 5638 5640 5644 5647 5648 5650 5654
5595 5594 5598 5593 5582 5565 5565 5589 5624 5617 5619 5618 5626 5632 5636 5634 5633 5637 5640 5646 5650 5650 5648 5647 5644 5644 5643 5642 5642 5640 5640 5638 5637 5634 5631 5625 5620 5616 5613 5614 5616 5618 5622 5626 5629 5631 5636 5639 5640
5604 5594 5584 5562 5568 5571 5569 5587 5609 5605 5609 5614 5615 5619 5627 5632 5628 5628 5629 5630 5633 5632 5630 5627 5628 5630 5633 5632 5628 5623 5622 5619 5617 5619 5618 5613 5609 5605 5601 5599 5599 5602 5606 5611 5615 5619 5622 5625 5628